Location: Newark
(3.0500°N, 36.0167°E)
Time: 03:46:23
(UTC+00:00)

Transit 2A Rocket - Pass Details

Date: 20 August 2019
Orbit: 592 x 911 km, 66.7° (Epoch: 19 September)

Event Time Altitude Azimuth Distance (km) Brightness Sun altitude
Rises 15:44:55 0° 200° (SSW) 3,529 8.5 -0.7°
Reaches altitude 10° 15:47:26 10° 199° (SSW) 2,593 7.9 -1.3°
Maximum altitude 15:53:33 89° 115° (ESE) 905 5.4 -2.8°
Drops below altitude 10° 15:59:28 10° 20° (NNE) 2,516 7.6 -4.2°
Sets 16:01:53 0° 20° (NNE) 3,418 8.3 -4.8°
